Regional Weather Roundup
Issued by NWS

Home | Current Version | Previous Version | Graphics & Text | Print | Product List | Glossary On
Versions: 1 2 3 4 5 6 7 8 9 10 11 12 13 14 15 16 17 18 19 20 21 22 23 24 25 26 27 28 29 30 31 32 33 34 35 36 37 38 39 40 41 42 43 44 45 46 47 48 49 50
000
ASUS43 KMKX 232000
RWRWI

WISCONSIN REGIONAL WEATHER ROUNDUP
NATIONAL WEATHER SERVICE MILWAUKEE/SULLIVAN WI
200 PM CST THU FEB 23 2017

NOTE: "FAIR" INDICATES FEW OR NO CLOUDS BELOW 12,000 FEET WITH NO
SIGNIFICANT WEATHER AND/OR OBSTRUCTIONS TO VISIBILITY.

WIZ001-002-006>008-014>016-023>028-232100-
NORTHWEST WISCONSIN

CITY           SKY/WX    TMP DP  RH WIND       PRES   REMARKS
SUPERIOR ARPT  CLOUDY    31  25  80 NW9       29.97F WCI  22
ASHLAND        CLOUDY    32  25  75 NW7       29.94F WCI  26
HAYWARD        PTSUNNY   35  23  61 VRB7      29.91F WCI  29
SIREN          PTSUNNY   32  22  67 NE6       29.93F WCI  26
CUMBERLAND     PTSUNNY   34  25  69 N8        29.89F WCI  27
RICE LAKE      PTSUNNY   37  28  68 N8        29.90F WCI  31
CHETEK         PTSUNNY   40  28  60 N7        29.88F
LADYSMITH      PTSUNNY   38  27  62 N9        29.90S WCI  32
EAU CLAIRE     NOT AVBL
MENOMONIE      PTSUNNY   40  27  61 N8        29.87F WCI  34
NEW RICHMOND   PTSUNNY   37  25  61 N12       29.90F WCI  30
OSCEOLA        CLOUDY    34  26  72 N14       29.94F WCI  24
$$

WIZ003>005-009-010-017-018-232100-
NORTH CENTRAL WISCONSIN

CITY           SKY/WX    TMP DP  RH WIND       PRES   REMARKS
MANITOWISH WTR CLOUDY    30  27  88 NW7       29.87F WCI  23
ARBOR VITAE    CLOUDY    37  31  79 NW9         N/A  WCI  30
WOODRUFF       CLOUDY    37  31  79 NW9         N/A  WCI  30
RHINELANDER    SUNNY     37  25  61 VRB6      29.85F WCI  32
EAGLE RIVER    CLOUDY    33  25  71 NW5       29.86S WCI  29
LAND O LAKES   CLOUDY    33  27  79 NW5       29.88S WCI  29
PHILLIPS       PTSUNNY   35  25  67 NE3       29.87F
TOMAHAWK       SUNNY     39  24  55 N7        29.86F WCI  34
MEDFORD        MOSUNNY   38  26  62 NE9       29.84F WCI  32
MERRILL        NOT AVBL
$$

WIZ029-030-035-036-043>047-232100-
CENTRAL WISCONSIN

CITY           SKY/WX    TMP DP  RH WIND       PRES   REMARKS
WAUSAU         SUNNY     41  25  53 N7        29.83F
MOSINEE        MOSUNNY   41  28  60 N7        29.85F
MARSHFIELD     CLOUDY    40  28  62 N9        29.81F WCI  34
STEVENS POINT  MOSUNNY   40  26  56 N7        29.85S
WAUPACA        MOSUNNY   46  30  52 N7        29.85F
WAUTOMA        CLOUDY    44  31  60 NE14      29.81F
WISC RAPIDS    CLOUDY    43  29  57 NE12      29.82F
CAMP DOUGLAS   NOT AVBL
$$

WIZ011>013-019>022-031-037>040-048>050-232100-
NORTHEAST WISCONSIN

CITY           SKY/WX    TMP DP  RH WIND       PRES   REMARKS
ANTIGO         SUNNY     38  25  60 N8        29.84F WCI  32
SHAWANO        SUNNY     46  27  47 E5        29.85F
OCONTO         SUNNY     42  26  51 N7        29.86F
STURGEON BAY   SUNNY     40  26  57 N13       29.87S WCI  32
GREEN BAY      SUNNY     42  32  67 E9        29.86S
MANITOWOC      NOT AVBL
APPLETON       PTSUNNY   41  27  56 NE12      29.84F
CLINTONVILLE   SUNNY     43  27  52 N6        29.85F
OSHKOSH        PTSUNNY   39  30  70 NE10      29.83F WCI  32
$$

WIZ032>034-041-042-053>061-232100-
SOUTHWEST WISCONSIN

CITY           SKY/WX    TMP DP  RH WIND       PRES   REMARKS
LA CROSSE      CLOUDY    47  31  53 NE8       29.83R
SPARTA         CLOUDY    45  32  61 N10G18    29.82F
VIROQUA        CLOUDY    43  32  63 NE6       29.83R
BOSCOBEL       CLOUDY    47  32  56 NE8       29.80F
PRAIRIE DU CHI CLOUDY    47  32  56 NE10      29.79F
PLATTEVILLE    CLOUDY    45  38  79 E9        29.79F
$$

WIZ056-057-062-063-064-067-068-232100-
SOUTH CENTRAL WISCONSIN

CITY           SKY/WX    TMP DP  RH WIND       PRES   REMARKS
REEDSBURG      CLOUDY    45  32  61 NE5       29.83R
BARABOO/DELLS  CLOUDY    44  32  61 E8        29.84R
LONE ROCK      CLOUDY    46  34  62 E10       29.83F
MINERAL POINT  CLOUDY    45  37  76 E10       29.79F
MADISON        CLOUDY    44  35  70 E8        29.83R
MIDDLETON      CLOUDY    45  36  70 E7        29.83S
WATERTOWN      CLOUDY    42  36  77 N9        29.81R
MONROE         CLOUDY    43  36  75 NE8       29.80S
JANESVILLE     CLOUDY    46  39  76 NE12      29.80F
$$

WIZ051-052-058>065-066-070>072-232100-
SOUTHEAST WISCONSIN

CITY           SKY/WX    TMP DP  RH WIND       PRES   REMARKS
MILWAUKEE      CLOUDY    39  32  76 NE15G26   29.83F WCI  31
WAUKESHA       PTSUNNY   37  30  75 E6        29.86R WCI  33
MILWAUKEE/TIMM CLOUDY    37  30  75 NE17G26   29.81F WCI  28
RACINE         CLOUDY    38  32  79 NE13      29.86S WCI  30
KENOSHA        CLOUDY    38  32  79 NE14      29.85R WCI  30
FOND DU LAC    CLOUDY    39  30  70 NE17      29.82F WCI  30
SHEBOYGAN      CLOUDY    38  31  76 E14       29.87F WCI  30
WEST BEND      CLOUDY    37  34  87 E16       29.83F WCI  28
JUNEAU         CLOUDY    41  33  74 NE17      29.79F
$$

LSZ147-162-232100-
LAKE SUPERIOR

STATION/POSITION TIME  TEMP    WIND        PRES    WAVE
                       AIR SEA DIR/SP/G            HT/PER
                 (UTC) (F)     (DEG/KT/KT) (MB)    (FT/S)
DEVILS ISLAND    1900   31     270/  9/ 11 1014.6F
PORT WING        1930   30     280/  5/  9 1014.9S
SAXON HARBOR     1940   32     350/  4/  7 1013.5F
$$

LMZ867-665-643>646-232100-
LAKE MICHIGAN

STATION/POSITION TIME  TEMP    WIND        PRES    WAVE
                       AIR SEA DIR/SP/G            HT/PER
                 (UTC) (F)     (DEG/KT/KT) (MB)    (FT/S)
CHAMBERS ISLAND  1940   34      30/  8/ 12 1011.2F
NORTHPORT PIER   1940   34     350/  9/ 11 1011.9F
SISTER BAY       1905   42     360/ 15/ 20   N/A
KEWAUNEE LAKESHO 1930   40      40/  9/ 12 1011.0F
SHEBOYGAN LAKESH 1900   36      30/ 18/ 20 1011.8R
PORT WASHINGTON  1930   38      50/ 14/ 18 1012.5F
MILWAUKEE LAKESH 1940   36      40/ 23/ 26   N/A
KENOSHA   LAKESH 1900   37      30/ 14/ 25 1010.8
$$

TC  - TEMPERATURE IN CELSIUS
VSB - VISIBILITY IN STATUTE MILES
WCI - WIND CHILL INDEX
HX  - HEAT INDEX





USA.gov is the U.S. government's official web portal to all federal, state and local government web resources and services.